Location: Arleux
(50.3632°N, 2.8721°E)
Time: 22:56:17
(UTC+00:00)

Meteor 2-19 Rocket - Pass Details

Date: 15 December 2019
Orbit: 936 x 959 km, 82.5° (Epoch: 22 January)

Event Time Altitude Azimuth Distance (km) Brightness Sun altitude
Rises 06:13:05 0° 348° (NNW) 3,654 7.2 -13.2°
Reaches altitude 10° 06:15:36 10° 347° (NNW) 2,703 6.5 -12.8°
Maximum altitude 06:21:47 75° 263° (W) 992 4.4 -11.9°
Drops below altitude 10° 06:27:53 10° 179° (S) 2,675 7.1 -11.0°
Sets 06:30:22 0° 178° (S) 3,614 7.8 -10.6°
